,,Stat5,,Stat1,,Stat2,,Stat3,,Stat4,,Wind1,,Wind1,
time,status,PA1M_AVG,status,PR1M_SUM,status,RH1M_AVG,status,SR1M_AVG,status,TA1M_AVG,status,W1dAve1m,status,W1sAve1m,
2001-07-01, 00:00:00,VALID,918.885,VALID,0,VALID,96.043,VALID,0,VALID,17.8435,VALID,98,VALID,1.14717,
2001-07-01, 00:01:00,VALID,918.881,VALID,0,VALID,96.4461,VALID,0.0169808,VALID,17.8601,VALID,93,VALID,1.12289,
2001-07-01, 00:02:00,VALID,918.847,VALID,0,VALID,96.2681,VALID,0.0679233,VALID,17.8566,VALID,93,VALID,0.973346,
2001-07-01, 00:03:00,VALID,918.86,VALID,0,VALID,96.1422,VALID,0.0339617,VALID,17.8633,VALID,103,VALID,0.76028,
2001-07-01, 00:04:00,VALID,918.835,VALID,0,VALID,96.0659,VALID,0.0679233,VALID,17.8271,VALID,103,VALID,0.776259,
2001-07-01, 00:05:00,VALID,918.816,VALID,0,VALID,95.9934,VALID,0.0339617,VALID,17.7791,VALID,99,VALID,0.796875,
2001-07-01, 00:06:00,VALID,918.789,VALID,0,VALID,96.2516,VALID,0.0169808,VALID,17.7309,VALID,104,VALID,1.00929,
2001-07-01, 00:07:00,VALID,918.773,VALID,0,VALID,96.5072,VALID,0.0339617,VALID,17.7049,VALID,111,VALID,1.18339,
2001-07-01, 00:08:00,VALID,918.749,VALID,0,VALID,96.8543,VALID,0.0509425,VALID,17.7185,VALID,107,VALID,1.33876,
2001-07-01, 00:09:00,VALID,918.728,VALID,0,VALID,96.8696,VALID,0.0169808,VALID,17.7987,VALID,113,VALID,1.46495,
2001-07-01, 00:10:00,VALID,918.694,VALID,0,VALID,96.5428,VALID,0.0849042,VALID,17.8596,VALID,112,VALID,1.56771,
2001-07-01, 00:11:00,VALID,918.661,VALID,0,VALID,96.0201,VALID,0.0509425,VALID,17.9281,VALID,112,VALID,1.38906,
2001-07-01, 00:12:00,VALID,918.615,VALID,0,VALID,95.5051,VALID,-0.101885,VALID,17.9361,VALID,126,VALID,1.26801,
2001-07-01, 00:13:00,VALID,918.573,VALID,0,VALID,95.2241,VALID,-0.101885,VALID,17.9066,VALID,124,VALID,1.57472,
2001-07-01, 00:14:00,VALID,918.557,VALID,0,VALID,95.3996,VALID,-0.101885,VALID,17.8808,VALID,132,VALID,1.57465,
2001-07-01, 00:15:00,VALID,918.537,VALID,0,VALID,95.5077,VALID,-0.101885,VALID,17.8778,VALID,125,VALID,1.55633,
2001-07-01, 00:16:00,VALID,918.528,VALID,0,VALID,95.4644,VALID,-0.101885,VALID,17.8616,VALID,115,VALID,1.27431,
2001-07-01, 00:17:00,VALID,918.522,VALID,0,VALID,95.6463,VALID,-0.101885,VALID,17.8487,VALID,107,VALID,1.48351,
2001-07-01, 00:18:00,VALID,918.514,VALID,0,VALID,95.9133,VALID,-0.101885,VALID,17.8522,VALID,102,VALID,1.59375,
2001-07-01, 00:19:00,VALID,918.494,VALID,0,VALID,95.7124,VALID,-0.0849042,VALID,17.8294,VALID,86,VALID,1.0971,
2001-07-01, 00:20:00,VALID,918.493,VALID,0,VALID,95.8192,VALID,-0.101885,VALID,17.7973,VALID,109,VALID,1.15857,
2001-07-01, 00:21:00,VALID,918.491,VALID,0,VALID,96.3749,VALID,-0.0679233,VALID,17.7715,VALID,115,VALID,1.92656,
2001-07-01, 00:22:00,VALID,918.482,VALID,0,VALID,96.6699,VALID,-0.101885,VALID,17.7194,VALID,114,VALID,1.81011,
2001-07-01, 00:23:00,VALID,918.488,VALID,0,VALID,96.9967,VALID,-0.101885,VALID,17.6584,VALID,113,VALID,1.76923,
2001-07-01, 00:24:00,VALID,918.457,VALID,0,VALID,97.2421,VALID,-0.101885,VALID,17.6227,VALID,108,VALID,1.47879,
2001-07-01, 00:25:00,VALID,918.441,VALID,0,VALID,97.452,VALID,-0.0679233,VALID,17.5999,VALID,104,VALID,1.39654,
2001-07-01, 00:26:00,VALID,918.414,VALID,0,VALID,97.5079,VALID,-0.101885,VALID,17.5706,VALID,99,VALID,1.12634,
2001-07-01, 00:27:00,VALID,918.395,VALID,0,VALID,97.4303,VALID,-0.0849042,VALID,17.5482,VALID,103,VALID,1.23112,
2001-07-01, 00:28:00,VALID,918.387,VALID,0,VALID,97.5346,VALID,-0.101885,VALID,17.5418,VALID,106,VALID,1.1875,
2001-07-01, 00:29:00,VALID,918.376,VALID,0,VALID,97.4342,VALID,-0.0849042,VALID,17.5381,VALID,105,VALID,1.0625,
2001-07-01, 00:30:00,VALID,918.339,VALID,0,VALID,97.4596,VALID,-0.101885,VALID,17.5452,VALID,109,VALID,1.47677,
2001-07-01, 00:31:00,VALID,918.315,VALID,0,VALID,97.3248,VALID,-0.101885,VALID,17.5489,VALID,108,VALID,1.45378,
2001-07-01, 00:32:00,VALID,918.297,VALID,0,VALID,97.1633,VALID,-0.0849042,VALID,17.5258,VALID,102,VALID,1.15603,
2001-07-01, 00:33:00,VALID,918.283,VALID,0,VALID,97.143,VALID,-0.0849042,VALID,17.5095,VALID,108,VALID,1.10577,
2001-07-01, 00:34:00,VALID,918.275,VALID,0,VALID,97.1595,VALID,-0.101885,VALID,17.5228,VALID,109,VALID,0.987054,
2001-07-01, 00:35:00,VALID,918.267,VALID,0,VALID,96.9166,VALID,-0.0849042,VALID,17.506,VALID,115,VALID,1.00655,
2001-07-01, 00:36:00,VALID,918.259,VALID,0,VALID,96.792,VALID,-0.0849042,VALID,17.4933,VALID,121,VALID,1.13214,
2001-07-01, 00:37:00,VALID,918.249,VALID,0,VALID,96.6966,VALID,-0.118866,VALID,17.4806,VALID,121,VALID,0.929905,
2001-07-01, 00:38:00,VALID,918.233,VALID,0,VALID,96.7602,VALID,-0.0679233,VALID,17.4583,VALID,133,VALID,0.974359,
2001-07-01, 00:39:00,VALID,918.22,VALID,0,VALID,96.9357,VALID,-0.0849042,VALID,17.4613,VALID,127,VALID,0.914063,
2001-07-01, 00:40:00,VALID,918.219,VALID,0,VALID,97.0476,VALID,-0.101885,VALID,17.4776,VALID,120,VALID,0.748944,
2001-07-01, 00:41:00,VALID,918.196,VALID,0,VALID,97.1773,VALID,-0.101885,VALID,17.5026,VALID,117,VALID,0.918527,
2001-07-01, 00:42:00,VALID,918.214,VALID,0,VALID,97.2294,VALID,0,VALID,17.5501,VALID,113,VALID,1.01888,
2001-07-01, 00:43:00,VALID,918.225,VALID,0,VALID,97.1124,VALID,0.0169808,VALID,17.6212,VALID,113,VALID,0.922743,
2001-07-01, 00:44:00,VALID,918.238,VALID,0,VALID,96.834,VALID,0.0169808,VALID,17.6763,VALID,117,VALID,0.974392,
2001-07-01, 00:45:00,VALID,918.246,VALID,0,VALID,96.6394,VALID,0,VALID,17.7281,VALID,121,VALID,1.2021,
2001-07-01, 00:46:00,VALID,918.239,VALID,0,VALID,96.3533,VALID,0.0169808,VALID,17.7796,VALID,125,VALID,1.27452,
2001-07-01, 00:47:00,VALID,918.221,VALID,0,VALID,95.9222,VALID,0.0169808,VALID,17.8183,VALID,138,VALID,1.023,
2001-07-01, 00:48:00,VALID,918.225,VALID,0,VALID,95.7963,VALID,0.0169808,VALID,17.8474,VALID,130,VALID,1.32432,
2001-07-01, 00:49:00,VALID,918.219,VALID,0,VALID,95.57,VALID,0.0169808,VALID,17.8797,VALID,140,VALID,1.17121,
2001-07-01, 00:50:00,VALID,918.218,VALID,0,VALID,95.3792,VALID,0.0169808,VALID,17.8958,VALID,136,VALID,1.15351,
2001-07-01, 00:51:00,VALID,918.224,VALID,0,VALID,95.4136,VALID,0.0169808,VALID,17.938,VALID,142,VALID,1.48192,
2001-07-01, 00:52:00,VALID,918.211,VALID,0,VALID,95.1821,VALID,0.0169808,VALID,17.9832,VALID,140,VALID,1.53602,
2001-07-01, 00:53:00,VALID,918.205,VALID,0,VALID,94.7689,VALID,0,VALID,18.0282,VALID,136,VALID,1.15825,
2001-07-01, 00:54:00,VALID,918.181,VALID,0,VALID,94.1064,VALID,0.0339617,VALID,18.0342,VALID,135,VALID,0.801562,
2001-07-01, 00:55:00,VALID,918.18,VALID,0,VALID,93.9042,VALID,0.0169808,VALID,18.0021,VALID,125,VALID,0.841427,
2001-07-01, 00:56:00,VALID,918.149,VALID,0,VALID,93.9194,VALID,0.0169808,VALID,17.9602,VALID,115,VALID,0.764063,
2001-07-01, 00:57:00,VALID,918.117,VALID,0,VALID,94.0542,VALID,-0.0679233,VALID,17.9096,VALID,116,VALID,0.821181,
2001-07-01, 00:58:00,VALID,918.1,VALID,0,VALID,94.2297,VALID,-0.118866,VALID,17.8328,VALID,128,VALID,0.984158,
2001-07-01, 00:59:00,VALID,918.077,VALID,0,VALID,94.8083,VALID,-0.101885,VALID,17.7876,VALID,129,VALID,0.995443,
2001-07-01, 01:00:00,VALID,918.051,VALID,0,VALID,95.1567,VALID,-0.101885,VALID,17.7682,VALID,123,VALID,0.866765,
2001-07-01, 01:01:00,VALID,918.01,VALID,0,VALID,95.102,VALID,-0.101885,VALID,17.7555,VALID,118,VALID,0.66276,
2001-07-01, 01:02:00,VALID,917.992,VALID,0,VALID,95.3182,VALID,-0.118866,VALID,17.7295,VALID,121,VALID,0.832248,
2001-07-01, 01:03:00,VALID,917.987,VALID,0,VALID,95.4314,VALID,-0.101885,VALID,17.7428,VALID,129,VALID,0.665064,
2001-07-01, 01:04:00,VALID,917.97,VALID,0,VALID,95.2928,VALID,-0.0849042,VALID,17.7062,VALID,108,VALID,0.791518,
2001-07-01, 01:05:00,VALID,917.959,VALID,0,VALID,95.2495,VALID,-0.0849042,VALID,17.6868,VALID,105,VALID,0.53484,
2001-07-01, 01:06:00,VALID,917.942,VALID,0,VALID,95.3322,VALID,-0.101885,VALID,17.6453,VALID,107,VALID,0.851786,
2001-07-01, 01:07:00,VALID,917.925,VALID,0,VALID,95.2508,VALID,-0.101885,VALID,17.6001,VALID,108,VALID,0.899306,
2001-07-01, 01:08:00,VALID,917.908,VALID,0,VALID,95.1961,VALID,-0.0849042,VALID,17.5519,VALID,88,VALID,0.84996,
2001-07-01, 01:09:00,VALID,917.905,VALID,0,VALID,95.5776,VALID,-0.101885,VALID,17.5067,VALID,97,VALID,1.14397,
2001-07-01, 01:10:00,VALID,917.907,VALID,0,VALID,95.8383,VALID,-0.101885,VALID,17.5132,VALID,92,VALID,1.02914,
2001-07-01, 01:11:00,VALID,917.925,VALID,0,VALID,95.7213,VALID,-0.0849042,VALID,17.5132,VALID,92,VALID,0.821205,
2001-07-01, 01:12:00,VALID,917.916,VALID,0,VALID,95.2902,VALID,0,VALID,17.4604,VALID,86,VALID,0.649306,
2001-07-01, 01:13:00,VALID,917.902,VALID,0,VALID,95.7963,VALID,-0.0169808,VALID,17.4378,VALID,104,VALID,1.01497,
2001-07-01, 01:14:00,VALID,917.908,VALID,0,VALID,95.7569,VALID,0,VALID,17.4475,VALID,96,VALID,0.788194,
2001-07-01, 01:15:00,VALID,917.92,VALID,0,VALID,95.7798,VALID,0,VALID,17.4604,VALID,103,VALID,0.60588,
2001-07-01, 01:16:00,VALID,917.945,VALID,0,VALID,95.5051,VALID,0.0339617,VALID,17.483,VALID,62,VALID,0.485677,
2001-07-01, 01:17:00,VALID,917.974,VALID,0,VALID,95.1465,VALID,0,VALID,17.4927,VALID,37,VALID,0.276042,
2001-07-01, 01:18:00,VALID,917.986,VALID,0,VALID,94.9812,VALID,0.0169808,VALID,17.4699,VALID,67,VALID,0.415064,
2001-07-01, 01:19:00,VALID,917.983,VALID,0,VALID,94.8668,VALID,0,VALID,17.4638,VALID,57,VALID,0.514286,
2001-07-01, 01:20:00,VALID,917.958,VALID,0,VALID,94.8439,VALID,0,VALID,17.4539,VALID,80,VALID,0.668919,
2001-07-01, 01:21:00,VALID,917.934,VALID,0,VALID,94.9978,VALID,-0.0169808,VALID,17.4473,VALID,112,VALID,0.967634,
2001-07-01, 01:22:00,VALID,917.934,VALID,0,VALID,94.8108,VALID,0,VALID,17.5054,VALID,122,VALID,0.90408,
2001-07-01, 01:23:00,VALID,917.938,VALID,0,VALID,94.3721,VALID,-0.0169808,VALID,17.5669,VALID,134,VALID,0.945112,
2001-07-01, 01:24:00,VALID,917.941,VALID,0,VALID,94.0199,VALID,-0.0169808,VALID,17.6156,VALID,143,VALID,1.05246,
2001-07-01, 01:25:00,VALID,917.939,VALID,0,VALID,93.5176,VALID,-0.118866,VALID,17.6589,VALID,142,VALID,1.18307,
2001-07-01, 01:26:00,VALID,917.924,VALID,0,VALID,92.7178,VALID,-0.101885,VALID,17.7366,VALID,135,VALID,1.22746,
2001-07-01, 01:27:00,VALID,917.913,VALID,0,VALID,92.101,VALID,0,VALID,17.7865,VALID,124,VALID,0.771267,
2001-07-01, 01:28:00,VALID,917.903,VALID,0,VALID,91.5047,VALID,-0.0169808,VALID,17.8031,VALID,92,VALID,0.582899,
2001-07-01, 01:29:00,VALID,917.903,VALID,0,VALID,91.3966,VALID,0,VALID,17.7155,VALID,90,VALID,0.599826,
2001-07-01, 01:30:00,VALID,917.902,VALID,0,VALID,91.9332,VALID,-0.0169808,VALID,17.6382,VALID,84,VALID,0.571957,
2001-07-01, 01:31:00,VALID,917.895,VALID,0,VALID,91.8187,VALID,-0.0169808,VALID,17.5385,VALID,67,VALID,0.669271,
2001-07-01, 01:32:00,VALID,917.889,VALID,0,VALID,92.6008,VALID,0,VALID,17.4055,VALID,78,VALID,0.806424,
2001-07-01, 01:33:00,VALID,917.885,VALID,0,VALID,93.6766,VALID,-0.0169808,VALID,17.3508,VALID,98,VALID,1.01683,
2001-07-01, 01:34:00,VALID,917.864,VALID,0,VALID,94.1331,VALID,0.0169808,VALID,17.3575,VALID,101,VALID,1.20268,
2001-07-01, 01:35:00,VALID,917.856,VALID,0,VALID,94.2145,VALID,-0.0339617,VALID,17.409,VALID,103,VALID,1.32031,
2001-07-01, 01:36:00,VALID,917.852,VALID,0,VALID,94.0123,VALID,0.0169808,VALID,17.4837,VALID,102,VALID,1.30558,
2001-07-01, 01:37:00,VALID,917.864,VALID,0,VALID,93.5202,VALID,0,VALID,17.5194,VALID,100,VALID,1.32856,
2001-07-01, 01:38:00,VALID,917.888,VALID,0,VALID,93.8597,VALID,0,VALID,17.5284,VALID,110,VALID,1.42127,
2001-07-01, 01:39:00,VALID,917.887,VALID,0,VALID,93.9449,VALID,0.0169808,VALID,17.5835,VALID,115,VALID,1.57187,
2001-07-01, 01:40:00,VALID,917.875,VALID,0,VALID,93.6295,VALID,-0.0169808,VALID,17.6186,VALID,114,VALID,1.52724,
2001-07-01, 01:41:00,VALID,917.875,VALID,0,VALID,93.4973,VALID,0,VALID,17.6384,VALID,116,VALID,1.58973,
2001-07-01, 01:42:00,VALID,917.86,VALID,0,VALID,93.5265,VALID,0,VALID,17.6488,VALID,118,VALID,1.59505,
2001-07-01, 01:43:00,VALID,917.874,VALID,0,VALID,93.6448,VALID,0,VALID,17.6257,VALID,121,VALID,1.48872,
2001-07-01, 01:44:00,VALID,917.885,VALID,0,VALID,93.6003,VALID,0,VALID,17.5925,VALID,120,VALID,0.950304,
2001-07-01, 01:45:00,VALID,917.883,VALID,0,VALID,93.7605,VALID,0.0169808,VALID,17.5542,VALID,124,VALID,0.861225,
2001-07-01, 01:46:00,VALID,917.878,VALID,0,VALID,94.0911,VALID,0.0169808,VALID,17.5123,VALID,125,VALID,1.22483,
2001-07-01, 01:47:00,VALID,917.873,VALID,0,VALID,94.2933,VALID,0,VALID,17.4957,VALID,119,VALID,1.13889,
2001-07-01, 01:48:00,VALID,917.865,VALID,0,VALID,94.2958,VALID,0.0169808,VALID,17.4894,VALID,112,VALID,1.02544,
2001-07-01, 01:49:00,VALID,917.868,VALID,0,VALID,94.6659,VALID,0,VALID,17.4963,VALID,112,VALID,1.26339,
2001-07-01, 01:50:00,VALID,917.853,VALID,0,VALID,94.5133,VALID,0,VALID,17.5187,VALID,117,VALID,1.10663,
2001-07-01, 01:51:00,VALID,917.876,VALID,0,VALID,94.3314,VALID,-0.0169808,VALID,17.5353,VALID,102,VALID,1.21607,
2001-07-01, 01:52:00,VALID,917.881,VALID,0,VALID,94.2348,VALID,0,VALID,17.5286,VALID,106,VALID,1.02257,
2001-07-01, 01:53:00,VALID,917.888,VALID,0,VALID,94.4433,VALID,-0.0169808,VALID,17.5256,VALID,115,VALID,1.17268,
2001-07-01, 01:54:00,VALID,917.912,VALID,0,VALID,94.2768,VALID,-0.0339617,VALID,17.5454,VALID,129,VALID,0.994866,
2001-07-01, 01:55:00,VALID,917.916,VALID,0,VALID,94.1509,VALID,-0.0339617,VALID,17.5155,VALID,124,VALID,0.851774,
2001-07-01, 01:56:00,VALID,917.925,VALID,0,VALID,94.156,VALID,0,VALID,17.509,VALID,125,VALID,0.956027,
2001-07-01, 01:57:00,VALID,917.936,VALID,0,VALID,94.2602,VALID,0.0509425,VALID,17.5056,VALID,125,VALID,1.06771,
2001-07-01, 01:58:00,VALID,917.944,VALID,0,VALID,94.0809,VALID,0.0509425,VALID,17.5187,VALID,129,VALID,1.199,
2001-07-01, 01:59:00,VALID,917.943,VALID,0,VALID,94.0975,VALID,0.0679233,VALID,17.5506,VALID,128,VALID,1.33355,
2001-07-01, 02:00:00,VALID,917.949,VALID,0,VALID,93.8355,VALID,0.0169808,VALID,17.5994,VALID,132,VALID,1.32813,
2001-07-01, 02:01:00,VALID,917.922,VALID,0,VALID,93.6804,VALID,0.0169808,VALID,17.6573,VALID,139,VALID,1.41536,
2001-07-01, 02:02:00,VALID,917.913,VALID,0,VALID,93.1756,VALID,0.0509425,VALID,17.7187,VALID,134,VALID,1.08876,
2001-07-01, 02:03:00,VALID,917.892,VALID,0,VALID,92.6885,VALID,0.0509425,VALID,17.7381,VALID,114,VALID,0.735978,
2001-07-01, 02:04:00,VALID,917.877,VALID,0,VALID,92.6758,VALID,0.0509425,VALID,17.6926,VALID,111,VALID,0.992188,
2001-07-01, 02:05:00,VALID,917.858,VALID,0,VALID,92.8996,VALID,0.0509425,VALID,17.6636,VALID,110,VALID,0.970017,
2001-07-01, 02:06:00,VALID,917.841,VALID,0,VALID,93.0865,VALID,0.0339617,VALID,17.6156,VALID,122,VALID,1.14866,
2001-07-01, 02:07:00,VALID,917.81,VALID,0,VALID,93.4439,VALID,0.0679233,VALID,17.5861,VALID,115,VALID,1.15734,
2001-07-01, 02:08:00,VALID,917.803,VALID,0,VALID,93.4273,VALID,0.0679233,VALID,17.5702,VALID,122,VALID,1.10877,
2001-07-01, 02:09:00,VALID,917.792,VALID,0,VALID,93.393,VALID,0.0509425,VALID,17.5706,VALID,117,VALID,0.996429,
2001-07-01, 02:10:00,VALID,917.78,VALID,0,VALID,93.3637,VALID,0.0509425,VALID,17.5411,VALID,121,VALID,0.993032,
2001-07-01, 02:11:00,VALID,917.774,VALID,0,VALID,93.538,VALID,0.0849042,VALID,17.5314,VALID,123,VALID,0.911161,
2001-07-01, 02:12:00,VALID,917.779,VALID,0,VALID,93.6791,VALID,0,VALID,17.5134,VALID,130,VALID,0.825738,
2001-07-01, 02:13:00,VALID,917.75,VALID,0,VALID,93.7757,VALID,-0.0339617,VALID,17.5069,VALID,114,VALID,0.69987,
2001-07-01, 02:14:00,VALID,917.74,VALID,0,VALID,93.9372,VALID,-0.0339617,VALID,17.5136,VALID,111,VALID,1.00543,
2001-07-01, 02:15:00,VALID,917.739,VALID,0,VALID,93.7223,VALID,-0.0509425,VALID,17.5228,VALID,106,VALID,0.741571,
2001-07-01, 02:16:00,VALID,917.726,VALID,0,VALID,93.5049,VALID,-0.0509425,VALID,17.5129,VALID,77,VALID,0.721788,
2001-07-01, 02:17:00,VALID,917.732,VALID,0,VALID,93.0039,VALID,-0.0339617,VALID,17.4716,VALID,67,VALID,0.417318,
2001-07-01, 02:18:00,VALID,917.742,VALID,0,VALID,93.3688,VALID,-0.0849042,VALID,17.4264,VALID,80,VALID,0.486979,
2001-07-01, 02:19:00,VALID,917.755,VALID,0,VALID,93.1527,VALID,-0.0509425,VALID,17.3844,VALID,57,VALID,0.604688,
2001-07-01, 02:20:00,VALID,917.769,VALID,0,VALID,93.1679,VALID,-0.0509425,VALID,17.3293,VALID,55,VALID,0.272593,
2001-07-01, 02:21:00,VALID,917.764,VALID,0,VALID,93.4439,VALID,-0.0339617,VALID,17.2712,VALID,79,VALID,0.610491,
2001-07-01, 02:22:00,VALID,917.751,VALID,0,VALID,94.025,VALID,-0.0169808,VALID,17.2385,VALID,113,VALID,0.911892,
2001-07-01, 02:23:00,VALID,917.734,VALID,0,VALID,94.2907,VALID,-0.0679233,VALID,17.2491,VALID,110,VALID,0.882412,
2001-07-01, 02:24:00,VALID,917.712,VALID,0,VALID,94.0479,VALID,-0.0339617,VALID,17.2553,VALID,124,VALID,0.734152,
2001-07-01, 02:25:00,VALID,917.69,VALID,0,VALID,94.1051,VALID,-0.0339617,VALID,17.2297,VALID,121,VALID,1.14569,
2001-07-01, 02:26:00,VALID,917.688,VALID,0,VALID,94.1432,VALID,-0.0509425,VALID,17.2327,VALID,116,VALID,0.860045,
2001-07-01, 02:27:00,VALID,917.685,VALID,0,VALID,94.1547,VALID,0.0849042,VALID,17.2282,VALID,115,VALID,1.01215,
2001-07-01, 02:28:00,VALID,917.667,VALID,0,VALID,94.2348,VALID,0.0509425,VALID,17.2383,VALID,112,VALID,1.12999,
2001-07-01, 02:29:00,VALID,917.656,VALID,0,VALID,94.3988,VALID,0.0509425,VALID,17.2505,VALID,105,VALID,1.34093,
2001-07-01, 02:30:00,VALID,917.219,VALID,0,VALID,94.1153,VALID,0.0509425,VALID,17.283,VALID,94,VALID,1.13466,
2001-07-01, 02:31:00,VALID,917.615,VALID,0,VALID,94.0212,VALID,0.0509425,VALID,17.283,VALID,89,VALID,0.945964,
2001-07-01, 02:32:00,VALID,917.609,VALID,0,VALID,93.8114,VALID,0.0679233,VALID,17.2469,VALID,62,VALID,0.719401,
2001-07-01, 02:33:00,VALID,917.593,VALID,0,VALID,93.7134,VALID,0.0849042,VALID,17.1896,VALID,76,VALID,0.710737,
2001-07-01, 02:34:00,VALID,917.583,VALID,0,VALID,94.0135,VALID,0.0509425,VALID,17.1184,VALID,104,VALID,0.625,
2001-07-01, 02:35:00,VALID,917.585,VALID,0,VALID,94.2424,VALID,0.0849042,VALID,17.0635,VALID,104,VALID,0.555532,
2001-07-01, 02:36:00,VALID,917.581,VALID,0,VALID,94.6214,VALID,0.0679233,VALID,17.0086,VALID,107,VALID,0.628571,
2001-07-01, 02:37:00,VALID,917.593,VALID,0,VALID,95.0919,VALID,0.101885,VALID,16.9833,VALID,119,VALID,0.720486,
2001-07-01, 02:38:00,VALID,917.578,VALID,0,VALID,95.2025,VALID,0.0169808,VALID,16.9697,VALID,118,VALID,1.12059,
2001-07-01, 02:39:00,VALID,917.579,VALID,0,VALID,94.9533,VALID,0.0169808,VALID,16.9736,VALID,100,VALID,0.964955,
2001-07-01, 02:40:00,VALID,917.583,VALID,0,VALID,94.5273,VALID,0.0509425,VALID,16.9475,VALID,84,VALID,0.699958,
2001-07-01, 02:41:00,VALID,917.577,VALID,0,VALID,94.2272,VALID,0.0339617,VALID,16.8763,VALID,71,VALID,0.77433,
2001-07-01, 02:42:00,VALID,917.566,VALID,0,VALID,94.5031,VALID,0.0509425,VALID,16.8219,VALID,71,VALID,0.880208,
2001-07-01, 02:43:00,VALID,917.548,VALID,0,VALID,94.6989,VALID,0.0339617,VALID,16.7536,VALID,68,VALID,1.04905,
2001-07-01, 02:44:00,VALID,917.522,VALID,0,VALID,95.1275,VALID,0.0339617,VALID,16.7054,VALID,67,VALID,1.10634,
2001-07-01, 02:45:00,VALID,917.515,VALID,0,VALID,95.2851,VALID,0.0509425,VALID,16.6639,VALID,60,VALID,1.08594,
2001-07-01, 02:46:00,VALID,917.517,VALID,0,VALID,95.2877,VALID,0.0339617,VALID,16.5929,VALID,62,VALID,0.996962,
2001-07-01, 02:47:01,VALID,917.514,VALID,0,VALID,95.3373,VALID,0.0509425,VALID,16.5378,VALID,72,VALID,1.16819,
2001-07-01, 02:48:00,VALID,917.51,VALID,0,VALID,95.5484,VALID,0.0339617,VALID,16.5023,VALID,92,VALID,0.940505,
2001-07-01, 02:49:00,VALID,917.485,VALID,0,VALID,95.6793,VALID,0.0679233,VALID,16.4892,VALID,96,VALID,0.775,
2001-07-01, 02:50:00,VALID,917.478,VALID,0,VALID,96.1778,VALID,0.0339617,VALID,16.5057,VALID,108,VALID,0.920819,
2001-07-01, 02:51:00,VALID,917.468,VALID,0,VALID,96.1918,VALID,0.0339617,VALID,16.538,VALID,113,VALID,0.795982,
2001-07-01, 02:52:00,VALID,917.462,VALID,0,VALID,96.1715,VALID,0.0509425,VALID,16.5729,VALID,126,VALID,0.852865,
2001-07-01, 02:53:00,VALID,917.465,VALID,0,VALID,95.9515,VALID,0.0509425,VALID,16.5961,VALID,132,VALID,0.898638,
2001-07-01, 02:54:00,VALID,917.457,VALID,0,VALID,95.9108,VALID,0.0339617,VALID,16.609,VALID,128,VALID,0.970982,
2001-07-01, 02:55:00,VALID,917.466,VALID,0,VALID,95.809,VALID,0.0169808,VALID,16.6118,VALID,123,VALID,0.672931,
2001-07-01, 02:56:00,VALID,917.449,VALID,0,VALID,95.8574,VALID,0.0679233,VALID,16.6284,VALID,117,VALID,0.93058,
2001-07-01, 02:57:00,VALID,917.449,VALID,0,VALID,95.7073,VALID,0.0339617,VALID,16.6538,VALID,121,VALID,1.14323,
2001-07-01, 02:58:00,VALID,917.449,VALID,0,VALID,95.1046,VALID,0.0169808,VALID,16.7188,VALID,106,VALID,0.65191,
2001-07-01, 02:59:00,VALID,917.455,VALID,0,VALID,94.7384,VALID,0,VALID,16.7446,VALID,135,VALID,0.673828,
2001-07-01, 03:00:00,VALID,917.467,VALID,0,VALID,94.5578,VALID,0.0339617,VALID,16.7637,VALID,99,VALID,0.693873,
2001-07-01, 03:01:00,VALID,917.48,VALID,0,VALID,94.4065,VALID,0.0169808,VALID,16.7833,VALID,105,VALID,0.601128,
2001-07-01, 03:02:01,VALID,917.48,VALID,0,VALID,94.1343,VALID,0.0169808,VALID,16.7936,VALID,105,VALID,0.573568,
2001-07-01, 03:03:00,VALID,917.498,VALID,0,VALID,94.3238,VALID,0,VALID,16.7579,VALID,115,VALID,0.614984,
2001-07-01, 03:04:00,VALID,917.496,VALID,0,VALID,94.4026,VALID,0.0169808,VALID,16.7545,VALID,107,VALID,1.01027,
2001-07-01, 03:05:00,VALID,917.487,VALID,0,VALID,94.0428,VALID,-0.0169808,VALID,16.7902,VALID,126,VALID,0.836571,
2001-07-01, 03:06:00,VALID,917.479,VALID,0,VALID,93.9016,VALID,0,VALID,16.8223,VALID,122,VALID,0.83192,
2001-07-01, 03:07:00,VALID,917.476,VALID,0,VALID,93.5609,VALID,0.0339617,VALID,16.8059,VALID,121,VALID,0.526042,
2001-07-01, 03:08:00,VALID,917.477,VALID,0,VALID,93.7478,VALID,0.0339617,VALID,16.8003,VALID,117,VALID,0.730168,
2001-07-01, 03:09:00,VALID,917.461,VALID,0,VALID,93.9614,VALID,0,VALID,16.7743,VALID,121,VALID,0.690179,
2001-07-01, 03:10:01,VALID,917.448,VALID,0,VALID,94.3098,VALID,0,VALID,16.7515,VALID,122,VALID,0.945536,
2001-07-01, 03:11:00,VALID,917.448,VALID,0,VALID,94.3365,VALID,0,VALID,16.7515,VALID,119,VALID,0.828795,
2001-07-01, 03:12:00,VALID,917.448,VALID,0,VALID,94.395,VALID,0,VALID,16.745,VALID,115,VALID,0.743273,
2001-07-01, 03:13:00,VALID,917.451,VALID,0,VALID,94.5374,VALID,0.0169808,VALID,16.7252,VALID,125,VALID,0.988498,
2001-07-01, 03:14:00,VALID,917.462,VALID,0,VALID,94.4917,VALID,0,VALID,16.7485,VALID,124,VALID,0.72678,
2001-07-01, 03:15:00,VALID,917.485,VALID,0,VALID,93.9233,VALID,0.0169808,VALID,16.7192,VALID,97,VALID,0.41139,
2001-07-01, 03:16:00,VALID,917.48,VALID,0,VALID,93.8546,VALID,0,VALID,16.6641,VALID,86,VALID,0.548394,
2001-07-01, 03:17:01,VALID,917.459,VALID,0,VALID,94.2195,VALID,0,VALID,16.6189,VALID,80,VALID,0.900391,
2001-07-01, 03:18:01,VALID,917.459,VALID,0,VALID,94.5413,VALID,0,VALID,16.6224,VALID,79,VALID,0.879407,
2001-07-01, 03:19:00,VALID,917.451,VALID,0,VALID,94.2793,VALID,0,VALID,16.58,VALID,73,VALID,0.960491,
2001-07-01, 03:20:00,VALID,917.45,VALID,0,VALID,94.7244,VALID,0.0169808,VALID,16.5838,VALID,77,VALID,0.967694,
2001-07-01, 03:21:00,VALID,917.449,VALID,0,VALID,94.7714,VALID,-0.0169808,VALID,16.6032,VALID,77,VALID,0.91942,
2001-07-01, 03:22:01,VALID,917.467,VALID,0,VALID,94.5997,VALID,-0.0169808,VALID,16.6226,VALID,78,VALID,1.03364,
2001-07-01, 03:23:00,VALID,917.464,VALID,0,VALID,94.5438,VALID,0,VALID,16.6385,VALID,92,VALID,1.08474,
2001-07-01, 03:24:01,VALID,917.473,VALID,0,VALID,94.7651,VALID,0,VALID,16.6807,VALID,109,VALID,1.15647,
2001-07-01, 03:25:01,VALID,917.47,VALID,0,VALID,94.4662,VALID,0,VALID,16.7678,VALID,120,VALID,1.29899,
2001-07-01, 03:26:00,VALID,917.464,VALID,0,VALID,93.9868,VALID,0,VALID,16.8289,VALID,122,VALID,1.37545,
2001-07-01, 03:27:00,VALID,917.466,VALID,0,VALID,93.8622,VALID,0,VALID,16.8905,VALID,121,VALID,1.54405,
2001-07-01, 03:28:01,VALID,917.456,VALID,0,VALID,93.7185,VALID,0,VALID,16.9286,VALID,121,VALID,1.37609,
2001-07-01, 03:29:00,VALID,917.464,VALID,0,VALID,93.4489,VALID,0,VALID,16.9841,VALID,125,VALID,1.4783,
2001-07-01, 03:30:00,VALID,917.437,VALID,0,VALID,93.4947,VALID,-0.0169808,VALID,17.0099,VALID,128,VALID,1.44716,
2001-07-01, 03:31:00,VALID,917.423,VALID,0,VALID,93.4655,VALID,0,VALID,17.0392,VALID,130,VALID,1.56944,
2001-07-01, 03:32:01,VALID,917.401,VALID,0,VALID,93.4731,VALID,-0.0169808,VALID,17.0388,VALID,121,VALID,1.31076,